Time,TemperatureF,DewpointF,PressureIn,WindDirection,WindDirectionDegrees,WindSpeedMPH,WindSpeedGustMPH,Humidity,HourlyPrecipIn,Conditions,Clouds,dailyrainin,SoftwareType,DateUTC
2013-04-25 00:03:00,54.5,35.0,28.83,ENE,67,4.7,6.5,46,0.00,,,0.00,Rainwise IP-100,2013-04-25 05:03:00,
2013-04-25 00:08:00,54.5,35.0,28.83,ENE,67,4.2,6.3,46,0.00,,,0.00,Rainwise IP-100,2013-04-25 05:08:00,
2013-04-25 00:13:00,54.5,35.0,28.83,ENE,67,1.9,5.4,47,0.00,,,0.00,Rainwise IP-100,2013-04-25 05:13:00,
2013-04-25 00:18:00,54.3,35.0,28.83,ENE,67,1.9,3.7,47,0.00,,,0.00,Rainwise IP-100,2013-04-25 05:18:00,
2013-04-25 00:23:00,54.2,35.0,28.83,ENE,67,3.5,5.4,48,0.00,,,0.00,Rainwise IP-100,2013-04-25 05:23:00,
2013-04-25 00:28:00,54.0,35.0,28.83,ENE,67,2.8,5.1,48,0.00,,,0.00,Rainwise IP-100,2013-04-25 05:28:00,
2013-04-25 00:33:00,53.9,36.0,28.83,ESE,112,1.2,4.7,49,0.00,,,0.00,Rainwise IP-100,2013-04-25 05:33:00,
2013-04-25 00:38:00,53.7,36.0,28.82,ENE,67,1.6,4.2,50,0.00,,,0.00,Rainwise IP-100,2013-04-25 05:38:00,
2013-04-25 00:43:00,53.6,36.0,28.82,ENE,67,1.9,3.7,50,0.00,,,0.00,Rainwise IP-100,2013-04-25 05:43:00,
2013-04-25 00:48:00,53.5,36.0,28.83,East,90,3.5,4.2,51,0.00,,,0.00,Rainwise IP-100,2013-04-25 05:48:00,
2013-04-25 00:53:00,53.4,36.0,28.83,ENE,67,2.3,3.5,51,0.00,,,0.00,Rainwise IP-100,2013-04-25 05:53:00,
2013-04-25 00:58:00,53.4,36.0,28.82,ENE,67,2.3,4.7,52,0.00,,,0.00,Rainwise IP-100,2013-04-25 05:58:00,
2013-04-25 01:03:00,53.3,36.0,28.82,ENE,67,2.8,4.7,52,0.00,,,0.00,Rainwise IP-100,2013-04-25 06:03:00,
2013-04-25 01:08:00,53.0,36.0,28.82,ENE,67,0.0,3.3,52,0.00,,,0.00,Rainwise IP-100,2013-04-25 06:08:00,
2013-04-25 01:13:00,52.7,36.0,28.82,ENE,67,2.1,2.6,53,0.00,,,0.00,Rainwise IP-100,2013-04-25 06:13:00,
2013-04-25 01:18:00,52.4,36.0,28.82,NE,45,2.3,3.3,54,0.00,,,0.00,Rainwise IP-100,2013-04-25 06:18:00,
2013-04-25 01:23:00,52.3,36.0,28.82,NE,45,0.0,2.8,54,0.00,,,0.00,Rainwise IP-100,2013-04-25 06:23:00,
2013-04-25 01:28:00,52.2,36.0,28.83,NE,45,1.2,1.9,55,0.00,,,0.00,Rainwise IP-100,2013-04-25 06:28:00,
2013-04-25 01:33:00,52.3,36.0,28.82,ENE,67,3.0,3.7,55,0.00,,,0.00,Rainwise IP-100,2013-04-25 06:33:00,
2013-04-25 01:38:00,52.5,37.0,28.82,ENE,67,0.0,3.5,56,0.00,,,0.00,Rainwise IP-100,2013-04-25 06:38:00,
2013-04-25 01:43:00,52.6,37.0,28.82,ENE,67,0.0,2.6,56,0.00,,,0.00,Rainwise IP-100,2013-04-25 06:43:00,
2013-04-25 01:48:00,52.7,37.0,28.82,ENE,67,0.0,2.8,56,0.00,,,0.00,Rainwise IP-100,2013-04-25 06:48:00,
2013-04-25 01:53:00,52.9,37.0,28.82,ENE,67,0.0,3.0,56,0.00,,,0.00,Rainwise IP-100,2013-04-25 06:53:00,
2013-04-25 01:58:00,53.0,37.0,28.82,ENE,67,1.4,2.8,56,0.00,,,0.00,Rainwise IP-100,2013-04-25 06:58:00,
2013-04-25 02:03:00,53.0,37.0,28.82,NE,45,2.1,3.7,56,0.00,,,0.00,Rainwise IP-100,2013-04-25 07:03:00,
2013-04-25 02:08:00,53.1,37.0,28.81,NE,45,0.0,3.3,56,0.00,,,0.00,Rainwise IP-100,2013-04-25 07:08:00,
2013-04-25 02:13:00,53.2,37.0,28.82,NE,45,1.6,2.1,56,0.00,,,0.00,Rainwise IP-100,2013-04-25 07:13:00,
2013-04-25 02:18:00,53.2,37.0,28.82,ENE,67,3.0,3.0,56,0.00,,,0.00,Rainwise IP-100,2013-04-25 07:18:00,
2013-04-25 02:23:00,53.3,38.0,28.81,ENE,67,1.9,3.7,55,0.00,,,0.00,Rainwise IP-100,2013-04-25 07:23:00,
2013-04-25 02:28:00,53.3,38.0,28.81,East,90,0.0,2.1,55,0.00,,,0.00,Rainwise IP-100,2013-04-25 07:28:00,
2013-04-25 02:33:00,53.4,38.0,28.81,ENE,67,0.0,3.0,55,0.00,,,0.00,Rainwise IP-100,2013-04-25 07:33:00,
2013-04-25 02:38:00,53.4,38.0,28.82,ENE,67,0.0,1.9,55,0.00,,,0.00,Rainwise IP-100,2013-04-25 07:38:00,
2013-04-25 02:43:00,53.4,38.0,28.81,ENE,67,2.1,4.0,55,0.00,,,0.00,Rainwise IP-100,2013-04-25 07:43:00,
2013-04-25 02:48:00,53.4,38.0,28.82,East,90,3.3,4.0,55,0.00,,,0.00,Rainwise IP-100,2013-04-25 07:48:00,
2013-04-25 02:53:00,53.4,37.0,28.81,East,90,4.0,6.3,54,0.00,,,0.00,Rainwise IP-100,2013-04-25 07:53:00,
2013-04-25 02:58:00,53.4,37.0,28.81,ENE,67,1.4,4.7,54,0.00,,,0.00,Rainwise IP-100,2013-04-25 07:58:00,
2013-04-25 03:03:00,53.4,37.0,28.82,ENE,67,1.6,4.7,54,0.00,,,0.00,Rainwise IP-100,2013-04-25 08:03:00,
2013-04-25 03:08:00,53.4,38.0,28.82,ENE,67,2.1,4.0,55,0.00,,,0.00,Rainwise IP-100,2013-04-25 08:08:00,
2013-04-25 03:13:00,53.4,38.0,28.82,ENE,67,4.7,7.9,55,0.00,,,0.00,Rainwise IP-100,2013-04-25 08:13:00,
2013-04-25 03:18:00,53.4,38.0,28.82,ENE,67,6.8,6.8,55,0.00,,,0.00,Rainwise IP-100,2013-04-25 08:18:00,
2013-04-25 03:23:00,53.4,37.0,28.82,ENE,67,2.6,6.8,54,0.00,,,0.00,Rainwise IP-100,2013-04-25 08:23:00,
2013-04-25 03:28:00,53.4,37.0,28.82,ENE,67,2.6,6.1,54,0.00,,,0.00,Rainwise IP-100,2013-04-25 08:28:00,
2013-04-25 03:33:00,53.3,37.0,28.82,NE,45,4.0,5.4,54,0.00,,,0.00,Rainwise IP-100,2013-04-25 08:33:00,
2013-04-25 03:38:00,53.3,37.0,28.81,ENE,67,1.9,4.4,54,0.00,,,0.00,Rainwise IP-100,2013-04-25 08:38:00,
2013-04-25 03:43:00,53.3,38.0,28.82,NE,45,2.3,5.1,55,0.00,,,0.00,Rainwise IP-100,2013-04-25 08:43:00,
2013-04-25 03:48:00,53.3,38.0,28.82,ENE,67,3.3,4.4,55,0.00,,,0.00,Rainwise IP-100,2013-04-25 08:48:00,
2013-04-25 03:53:00,53.2,37.0,28.82,ENE,67,0.0,4.2,55,0.00,,,0.00,Rainwise IP-100,2013-04-25 08:53:00,
2013-04-25 03:58:00,53.2,37.0,28.82,NE,45,3.0,7.5,54,0.00,,,0.00,Rainwise IP-100,2013-04-25 08:58:00,
2013-04-25 04:03:00,53.3,37.0,28.82,ENE,67,1.4,5.4,54,0.00,,,0.00,Rainwise IP-100,2013-04-25 09:03:00,
2013-04-25 04:08:00,53.3,37.0,28.82,NE,45,3.0,4.4,54,0.00,,,0.00,Rainwise IP-100,2013-04-25 09:08:00,
2013-04-25 04:13:00,53.2,37.0,28.82,NNE,22,4.9,4.9,54,0.00,,,0.00,Rainwise IP-100,2013-04-25 09:13:00,
2013-04-25 04:18:00,53.3,37.0,28.82,ENE,67,3.3,5.1,54,0.00,,,0.00,Rainwise IP-100,2013-04-25 09:18:00,
2013-04-25 04:23:00,53.2,37.0,28.82,ENE,67,5.6,7.0,54,0.00,,,0.00,Rainwise IP-100,2013-04-25 09:23:00,
2013-04-25 04:28:00,53.2,37.0,28.82,ENE,67,2.1,5.6,54,0.00,,,0.00,Rainwise IP-100,2013-04-25 09:28:00,
2013-04-25 04:33:00,53.2,37.0,28.82,NNE,22,3.3,7.2,54,0.00,,,0.00,Rainwise IP-100,2013-04-25 09:33:00,
2013-04-25 04:38:00,53.2,37.0,28.83,NNE,22,2.6,4.9,54,0.00,,,0.00,Rainwise IP-100,2013-04-25 09:38:00,
2013-04-25 04:43:00,53.2,37.0,28.83,NE,45,4.0,5.4,54,0.00,,,0.00,Rainwise IP-100,2013-04-25 09:43:00,
2013-04-25 04:48:00,53.2,37.0,28.83,ENE,67,2.8,5.4,54,0.00,,,0.00,Rainwise IP-100,2013-04-25 09:48:00,
2013-04-25 04:53:00,53.2,37.0,28.83,NE,45,3.3,6.5,54,0.00,,,0.00,Rainwise IP-100,2013-04-25 09:53:00,
2013-04-25 04:58:00,53.2,37.0,28.83,East,90,2.1,5.4,54,0.00,,,0.00,Rainwise IP-100,2013-04-25 09:58:00,
2013-04-25 05:03:00,53.2,37.0,28.83,ESE,112,3.5,4.2,54,0.00,,,0.00,Rainwise IP-100,2013-04-25 10:03:00,
2013-04-25 05:08:00,53.1,37.0,28.82,ENE,67,4.2,6.3,54,0.00,,,0.00,Rainwise IP-100,2013-04-25 10:08:00,
2013-04-25 05:13:00,53.0,37.0,28.82,East,90,4.4,5.8,54,0.00,,,0.00,Rainwise IP-100,2013-04-25 10:13:00,
2013-04-25 05:18:00,53.0,37.0,28.83,ENE,67,3.7,5.6,54,0.00,,,0.00,Rainwise IP-100,2013-04-25 10:18:00,
2013-04-25 05:23:00,53.1,37.0,28.83,East,90,4.7,5.4,54,0.00,,,0.00,Rainwise IP-100,2013-04-25 10:23:00,
2013-04-25 05:28:00,53.0,37.0,28.83,ENE,67,3.5,5.1,55,0.00,,,0.00,Rainwise IP-100,2013-04-25 10:28:00,
2013-04-25 05:33:00,53.0,37.0,28.83,ENE,67,0.0,5.1,54,0.00,,,0.00,Rainwise IP-100,2013-04-25 10:33:00,
2013-04-25 05:38:00,53.1,37.0,28.84,ENE,67,5.6,5.6,55,0.00,,,0.00,Rainwise IP-100,2013-04-25 10:38:00,
2013-04-25 05:43:00,53.0,37.0,28.83,ENE,67,3.7,5.8,55,0.00,,,0.00,Rainwise IP-100,2013-04-25 10:43:00,
2013-04-25 05:48:00,53.0,37.0,28.83,ENE,67,2.6,6.1,55,0.00,,,0.00,Rainwise IP-100,2013-04-25 10:48:00,
2013-04-25 05:53:00,53.0,37.0,28.83,ENE,67,2.8,3.7,55,0.00,,,0.00,Rainwise IP-100,2013-04-25 10:53:00,
2013-04-25 05:58:00,53.0,37.0,28.83,ENE,67,3.5,6.3,55,0.00,,,0.00,Rainwise IP-100,2013-04-25 10:58:00,
2013-04-25 06:03:00,53.0,37.0,28.83,ENE,67,1.2,5.8,55,0.00,,,0.00,Rainwise IP-100,2013-04-25 11:03:00,
2013-04-25 06:08:00,53.0,37.0,28.84,NE,45,2.8,4.4,55,0.00,,,0.00,Rainwise IP-100,2013-04-25 11:08:00,
2013-04-25 06:13:00,53.0,37.0,28.84,NE,45,1.2,4.7,55,0.00,,,0.00,Rainwise IP-100,2013-04-25 11:13:00,
2013-04-25 06:18:00,52.9,37.0,28.84,NE,45,3.0,5.4,56,0.00,,,0.00,Rainwise IP-100,2013-04-25 11:18:00,
2013-04-25 06:23:00,52.9,37.0,28.84,ENE,67,3.3,6.3,56,0.00,,,0.00,Rainwise IP-100,2013-04-25 11:23:00,
2013-04-25 06:28:00,52.9,37.0,28.84,ENE,67,2.3,6.5,56,0.00,,,0.00,Rainwise IP-100,2013-04-25 11:28:00,
2013-04-25 06:33:00,52.9,37.0,28.83,ENE,67,3.5,4.9,56,0.00,,,0.00,Rainwise IP-100,2013-04-25 11:33:00,
2013-04-25 06:38:00,52.9,37.0,28.84,ENE,67,2.1,6.5,56,0.00,,,0.00,Rainwise IP-100,2013-04-25 11:38:00,
2013-04-25 06:39:00,52.9,37.0,28.83,ENE,67,2.8,6.5,56,0.00,,,0.00,Rainwise IP-100,2013-04-25 11:39:00,
2013-04-25 06:44:00,52.9,37.0,28.83,NE,45,2.8,5.4,56,0.00,,,0.00,Rainwise IP-100,2013-04-25 11:44:00,
2013-04-25 06:49:00,52.9,37.0,28.84,ENE,67,2.8,4.7,56,0.00,,,0.00,Rainwise IP-100,2013-04-25 11:49:00,
2013-04-25 06:54:00,52.8,37.0,28.84,East,90,3.3,7.5,56,0.00,,,0.00,Rainwise IP-100,2013-04-25 11:54:00,
2013-04-25 06:59:00,52.8,37.0,28.84,ENE,67,3.7,6.3,56,0.00,,,0.00,Rainwise IP-100,2013-04-25 11:59:00,
2013-04-25 07:04:00,52.8,37.0,28.84,ENE,67,1.6,5.1,56,0.00,,,0.00,Rainwise IP-100,2013-04-25 12:04:00,
2013-04-25 07:09:00,52.8,37.0,28.84,ENE,67,3.3,4.7,56,0.00,,,0.00,Rainwise IP-100,2013-04-25 12:09:00,
2013-04-25 07:14:00,52.8,37.0,28.86,NNE,22,2.8,4.9,56,0.00,,,0.00,Rainwise IP-100,2013-04-25 12:14:00,
2013-04-25 07:19:00,52.8,37.0,28.85,ENE,67,2.3,6.5,56,0.00,,,0.00,Rainwise IP-100,2013-04-25 12:19:00,
2013-04-25 07:24:00,52.8,38.0,28.85,ENE,67,1.4,4.9,57,0.00,,,0.00,Rainwise IP-100,2013-04-25 12:24:00,
2013-04-25 07:29:00,52.8,38.0,28.85,ENE,67,2.3,5.1,57,0.00,,,0.00,Rainwise IP-100,2013-04-25 12:29:00,
2013-04-25 07:34:00,52.8,38.0,28.86,ENE,67,5.1,5.8,57,0.00,,,0.00,Rainwise IP-100,2013-04-25 12:34:00,
2013-04-25 07:39:00,52.8,38.0,28.85,ENE,67,3.7,6.1,57,0.00,,,0.00,Rainwise IP-100,2013-04-25 12:39:00,
2013-04-25 07:44:00,52.9,38.0,28.86,East,90,3.0,7.0,57,0.00,,,0.00,Rainwise IP-100,2013-04-25 12:44:00,
2013-04-25 07:49:00,53.0,38.0,28.86,ESE,112,3.0,5.6,57,0.00,,,0.00,Rainwise IP-100,2013-04-25 12:49:00,
2013-04-25 07:54:00,53.0,38.0,28.86,ENE,67,2.6,4.2,57,0.00,,,0.00,Rainwise IP-100,2013-04-25 12:54:00,
2013-04-25 07:59:00,53.1,38.0,28.86,ESE,112,2.8,4.7,57,0.00,,,0.00,Rainwise IP-100,2013-04-25 12:59:00,
2013-04-25 08:04:00,53.2,38.0,28.87,NE,45,2.8,3.7,57,0.00,,,0.00,Rainwise IP-100,2013-04-25 13:04:00,
2013-04-25 08:09:00,53.4,38.0,28.87,ENE,67,1.9,4.4,57,0.00,,,0.00,Rainwise IP-100,2013-04-25 13:09:00,
2013-04-25 08:14:00,53.5,38.0,28.87,East,90,3.5,6.1,57,0.00,,,0.00,Rainwise IP-100,2013-04-25 13:14:00,
2013-04-25 08:19:00,53.5,38.0,28.87,ENE,67,3.0,8.2,56,0.00,,,0.00,Rainwise IP-100,2013-04-25 13:19:00,
2013-04-25 08:24:00,53.5,38.0,28.87,ENE,67,3.7,6.3,56,0.00,,,0.00,Rainwise IP-100,2013-04-25 13:24:00,
2013-04-25 08:29:00,53.7,38.0,28.87,ENE,67,4.4,6.1,56,0.00,,,0.00,Rainwise IP-100,2013-04-25 13:29:00,
2013-04-25 08:34:00,53.7,38.0,28.87,East,90,4.4,7.0,56,0.00,,,0.00,Rainwise IP-100,2013-04-25 13:34:00,
2013-04-25 08:39:00,53.6,38.0,28.87,East,90,3.3,8.2,56,0.00,,,0.00,Rainwise IP-100,2013-04-25 13:39:00,
2013-04-25 08:44:00,53.6,38.0,28.87,ENE,67,1.2,8.4,56,0.00,,,0.00,Rainwise IP-100,2013-04-25 13:44:00,
2013-04-25 08:49:00,53.7,38.0,28.88,NE,45,7.2,7.2,56,0.00,,,0.00,Rainwise IP-100,2013-04-25 13:49:00,
2013-04-25 08:54:00,53.7,38.0,28.88,ENE,67,3.7,8.4,56,0.00,,,0.00,Rainwise IP-100,2013-04-25 13:54:00,
2013-04-25 08:59:00,53.8,39.0,28.87,East,90,2.8,5.8,56,0.00,,,0.00,Rainwise IP-100,2013-04-25 13:59:00,
2013-04-25 09:04:00,54.0,39.0,28.88,ENE,67,4.4,7.2,56,0.00,,,0.00,Rainwise IP-100,2013-04-25 14:04:00,
2013-04-25 09:09:00,54.1,39.0,28.88,ENE,67,3.7,8.2,56,0.00,,,0.00,Rainwise IP-100,2013-04-25 14:09:00,
2013-04-25 09:14:00,54.3,39.0,28.88,ESE,112,2.6,7.5,56,0.00,,,0.00,Rainwise IP-100,2013-04-25 14:14:00,
2013-04-25 09:19:00,54.9,39.0,28.88,East,90,4.0,7.5,55,0.00,,,0.00,Rainwise IP-100,2013-04-25 14:19:00,
2013-04-25 09:24:00,55.2,39.0,28.88,NE,45,5.1,11.0,55,0.00,,,0.00,Rainwise IP-100,2013-04-25 14:24:00,
2013-04-25 09:29:00,55.2,39.0,28.88,NE,45,4.4,10.0,54,0.00,,,0.00,Rainwise IP-100,2013-04-25 14:29:00,
2013-04-25 09:34:00,55.0,39.0,28.88,ESE,112,2.8,10.5,54,0.00,,,0.00,Rainwise IP-100,2013-04-25 14:34:00,
2013-04-25 09:39:00,55.0,39.0,28.88,ENE,67,1.2,7.0,54,0.00,,,0.00,Rainwise IP-100,2013-04-25 14:39:00,
2013-04-25 09:44:00,54.9,39.0,28.88,ENE,67,5.1,7.5,55,0.00,,,0.00,Rainwise IP-100,2013-04-25 14:44:00,
2013-04-25 09:49:00,54.9,39.0,28.87,ENE,67,3.3,9.3,55,0.00,,,0.00,Rainwise IP-100,2013-04-25 14:49:00,
2013-04-25 09:54:00,55.2,39.0,28.87,ENE,67,3.7,7.7,55,0.00,,,0.00,Rainwise IP-100,2013-04-25 14:54:00,
2013-04-25 09:59:00,55.5,40.0,28.87,ESE,112,3.7,7.2,55,0.00,,,0.00,Rainwise IP-100,2013-04-25 14:59:00,
2013-04-25 10:04:00,55.5,40.0,28.87,ENE,67,3.7,8.9,55,0.00,,,0.00,Rainwise IP-100,2013-04-25 15:04:00,
2013-04-25 10:09:00,55.4,39.0,28.87,ENE,67,3.0,8.4,55,0.00,,,0.00,Rainwise IP-100,2013-04-25 15:09:00,
2013-04-25 10:14:00,55.6,39.0,28.87,ENE,67,6.3,10.5,54,0.00,,,0.00,Rainwise IP-100,2013-04-25 15:14:00,
2013-04-25 10:19:00,55.9,39.0,28.87,SE,135,4.4,9.3,54,0.00,,,0.00,Rainwise IP-100,2013-04-25 15:19:00,
2013-04-25 10:24:00,56.2,39.0,28.87,ESE,112,6.3,10.0,53,0.00,,,0.00,Rainwise IP-100,2013-04-25 15:24:00,
2013-04-25 10:29:00,56.3,39.0,28.87,East,90,4.0,10.5,53,0.00,,,0.00,Rainwise IP-100,2013-04-25 15:29:00,
2013-04-25 10:34:00,56.1,39.0,28.86,NE,45,6.1,9.6,53,0.00,,,0.00,Rainwise IP-100,2013-04-25 15:34:00,
2013-04-25 10:39:00,56.3,40.0,28.86,ENE,67,5.8,8.9,54,0.00,,,0.00,Rainwise IP-100,2013-04-25 15:39:00,
2013-04-25 10:44:00,56.2,39.0,28.87,East,90,4.0,8.2,54,0.00,,,0.00,Rainwise IP-100,2013-04-25 15:44:00,
2013-04-25 10:49:00,56.1,39.0,28.86,NE,45,7.9,7.9,54,0.00,,,0.00,Rainwise IP-100,2013-04-25 15:49:00,
2013-04-25 10:54:00,56.0,39.0,28.86,ESE,112,4.7,9.6,54,0.00,,,0.00,Rainwise IP-100,2013-04-25 15:54:00,
2013-04-25 10:59:00,56.1,39.0,28.86,ESE,112,3.0,7.9,54,0.00,,,0.00,Rainwise IP-100,2013-04-25 15:59:00,
2013-04-25 11:04:00,56.4,40.0,28.86,East,90,3.7,8.4,54,0.00,,,0.00,Rainwise IP-100,2013-04-25 16:04:00,
2013-04-25 11:09:00,56.5,40.0,28.86,ESE,112,6.8,7.0,54,0.00,,,0.00,Rainwise IP-100,2013-04-25 16:09:00,
2013-04-25 11:14:00,56.7,40.0,28.87,SE,135,4.4,9.8,54,0.00,,,0.00,Rainwise IP-100,2013-04-25 16:14:00,
2013-04-25 11:19:00,56.8,40.0,28.86,ENE,67,1.9,8.2,54,0.00,,,0.00,Rainwise IP-100,2013-04-25 16:19:00,
2013-04-25 11:24:00,56.9,40.0,28.86,ESE,112,7.0,7.0,54,0.00,,,0.00,Rainwise IP-100,2013-04-25 16:24:00,
2013-04-25 11:29:00,57.0,40.0,28.86,ENE,67,5.6,12.4,54,0.00,,,0.00,Rainwise IP-100,2013-04-25 16:29:00,
2013-04-25 11:34:00,57.0,40.0,28.86,East,90,3.5,11.0,53,0.00,,,0.00,Rainwise IP-100,2013-04-25 16:34:00,
2013-04-25 11:39:00,57.1,40.0,28.85,SE,135,2.1,8.4,53,0.00,,,0.00,Rainwise IP-100,2013-04-25 16:39:00,
2013-04-25 11:44:00,57.4,40.0,28.85,SE,135,2.6,10.0,53,0.00,,,0.00,Rainwise IP-100,2013-04-25 16:44:00,
2013-04-25 11:49:00,57.8,41.0,28.85,ESE,112,3.0,9.8,53,0.00,,,0.00,Rainwise IP-100,2013-04-25 16:49:00,
2013-04-25 11:54:00,58.1,41.0,28.84,East,90,3.3,10.0,53,0.00,,,0.00,Rainwise IP-100,2013-04-25 16:54:00,
2013-04-25 11:59:00,58.3,40.0,28.84,East,90,5.8,9.8,52,0.00,,,0.00,Rainwise IP-100,2013-04-25 16:59:00,
2013-04-25 12:04:00,58.7,41.0,28.84,SSE,157,4.4,16.6,52,0.00,,,0.00,Rainwise IP-100,2013-04-25 17:04:00,
2013-04-25 12:09:00,58.9,41.0,28.84,ESE,112,7.0,11.7,51,0.00,,,0.00,Rainwise IP-100,2013-04-25 17:09:00,
2013-04-25 12:14:00,59.1,41.0,28.84,ESE,112,9.1,13.1,51,0.00,,,0.00,Rainwise IP-100,2013-04-25 17:14:00,
2013-04-25 12:19:00,59.6,41.0,28.83,SSE,157,8.9,11.2,51,0.00,,,0.00,Rainwise IP-100,2013-04-25 17:19:00,
2013-04-25 12:24:00,60.3,42.0,28.83,South,180,8.9,12.1,50,0.00,,,0.00,Rainwise IP-100,2013-04-25 17:24:00,
2013-04-25 12:29:00,60.7,41.0,28.83,SSW,202,4.2,12.6,49,0.00,,,0.00,Rainwise IP-100,2013-04-25 17:29:00,
2013-04-25 12:34:00,60.9,41.0,28.83,ESE,112,7.0,12.4,49,0.00,,,0.00,Rainwise IP-100,2013-04-25 17:34:00,
2013-04-25 12:39:00,61.4,41.0,28.83,SE,135,5.8,12.8,48,0.00,,,0.00,Rainwise IP-100,2013-04-25 17:39:00,
2013-04-25 12:44:00,62.1,42.0,28.82,SE,135,3.0,12.1,48,0.00,,,0.00,Rainwise IP-100,2013-04-25 17:44:00,
2013-04-25 12:49:00,62.6,42.0,28.82,SE,135,6.3,10.7,47,0.00,,,0.00,Rainwise IP-100,2013-04-25 17:49:00,
2013-04-25 12:54:00,62.7,42.0,28.82,South,180,5.1,17.3,47,0.00,,,0.00,Rainwise IP-100,2013-04-25 17:54:00,
2013-04-25 12:59:00,62.3,42.0,28.82,ESE,112,4.9,14.5,47,0.00,,,0.00,Rainwise IP-100,2013-04-25 17:59:00,
2013-04-25 13:04:00,62.1,41.0,28.82,ESE,112,4.0,13.1,46,0.00,,,0.00,Rainwise IP-100,2013-04-25 18:04:00,
2013-04-25 13:09:00,62.0,41.0,28.82,East,90,11.2,13.5,47,0.00,,,0.00,Rainwise IP-100,2013-04-25 18:09:00,
2013-04-25 13:14:00,62.1,41.0,28.82,South,180,5.4,12.4,47,0.00,,,0.00,Rainwise IP-100,2013-04-25 18:14:00,
2013-04-25 13:19:00,62.4,42.0,28.82,East,90,6.3,11.9,47,0.00,,,0.00,Rainwise IP-100,2013-04-25 18:19:00,
2013-04-25 13:24:00,62.7,41.0,28.82,ESE,112,5.4,10.7,46,0.00,,,0.00,Rainwise IP-100,2013-04-25 18:24:00,
2013-04-25 13:29:00,62.9,42.0,28.81,SSE,157,7.7,10.7,46,0.00,,,0.00,Rainwise IP-100,2013-04-25 18:29:00,
2013-04-25 13:34:00,63.1,41.0,28.82,South,180,4.2,12.1,45,0.00,,,0.00,Rainwise IP-100,2013-04-25 18:34:00,
2013-04-25 13:39:00,63.3,42.0,28.81,SE,135,10.3,10.5,45,0.00,,,0.00,Rainwise IP-100,2013-04-25 18:39:00,
2013-04-25 13:44:00,63.7,42.0,28.81,South,180,3.3,11.9,45,0.00,,,0.00,Rainwise IP-100,2013-04-25 18:44:00,
2013-04-25 13:49:00,64.2,41.0,28.80,East,90,4.7,11.4,44,0.00,,,0.00,Rainwise IP-100,2013-04-25 18:49:00,
2013-04-25 13:54:00,64.4,42.0,28.81,ENE,67,5.1,10.5,44,0.00,,,0.00,Rainwise IP-100,2013-04-25 18:54:00,
2013-04-25 13:59:00,64.7,42.0,28.80,SSW,202,3.7,7.0,44,0.00,,,0.00,Rainwise IP-100,2013-04-25 18:59:00,
2013-04-25 14:04:00,64.8,42.0,28.80,ESE,112,8.4,9.1,43,0.00,,,0.00,Rainwise IP-100,2013-04-25 19:04:00,
2013-04-25 14:09:00,64.5,41.0,28.80,ENE,67,4.2,11.9,43,0.00,,,0.00,Rainwise IP-100,2013-04-25 19:09:00,
2013-04-25 14:14:00,64.2,41.0,28.80,SSW,202,3.0,7.7,43,0.00,,,0.00,Rainwise IP-100,2013-04-25 19:14:00,
2013-04-25 14:19:00,64.4,41.0,28.80,SSE,157,3.5,9.3,43,0.00,,,0.00,Rainwise IP-100,2013-04-25 19:19:00,
2013-04-25 14:24:00,64.8,42.0,28.80,SSE,157,5.8,8.2,43,0.00,,,0.00,Rainwise IP-100,2013-04-25 19:24:00,
2013-04-25 14:29:00,64.7,41.0,28.80,SE,135,7.2,11.4,43,0.00,,,0.00,Rainwise IP-100,2013-04-25 19:29:00,
2013-04-25 14:34:00,64.5,41.0,28.80,SE,135,3.5,9.6,43,0.00,,,0.00,Rainwise IP-100,2013-04-25 19:34:00,
2013-04-25 14:39:00,64.2,41.0,28.79,East,90,3.0,11.0,43,0.00,,,0.00,Rainwise IP-100,2013-04-25 19:39:00,
2013-04-25 14:44:00,64.1,41.0,28.79,SSE,157,4.2,13.5,43,0.00,,,0.00,Rainwise IP-100,2013-04-25 19:44:00,
2013-04-25 14:49:00,64.3,41.0,28.79,SSW,202,4.4,8.9,43,0.00,,,0.00,Rainwise IP-100,2013-04-25 19:49:00,
2013-04-25 14:54:00,64.8,42.0,28.79,ESE,112,4.9,11.0,43,0.00,,,0.00,Rainwise IP-100,2013-04-25 19:54:00,
2013-04-25 14:59:00,64.9,41.0,28.80,SE,135,4.7,7.7,42,0.00,,,0.00,Rainwise IP-100,2013-04-25 19:59:00,
2013-04-25 15:04:00,64.8,40.0,28.79,SE,135,2.8,8.2,41,0.00,,,0.00,Rainwise IP-100,2013-04-25 20:04:00,
2013-04-25 15:09:00,64.8,40.0,28.79,ESE,112,3.5,8.2,41,0.00,,,0.00,Rainwise IP-100,2013-04-25 20:09:00,
2013-04-25 15:14:00,65.2,40.0,28.78,East,90,4.7,10.0,40,0.00,,,0.00,Rainwise IP-100,2013-04-25 20:14:00,
2013-04-25 15:19:00,65.9,41.0,28.78,ESE,112,2.6,8.2,40,0.00,,,0.00,Rainwise IP-100,2013-04-25 20:19:00,
2013-04-25 15:24:00,66.6,41.0,28.77,ESE,112,4.2,11.4,39,0.00,,,0.00,Rainwise IP-100,2013-04-25 20:24:00,
2013-04-25 15:29:00,66.6,41.0,28.76,NNE,22,0.0,12.6,39,0.00,,,0.00,Rainwise IP-100,2013-04-25 20:29:00,
2013-04-25 15:34:00,66.6,41.0,28.76,ESE,112,2.1,10.7,39,0.00,,,0.00,Rainwise IP-100,2013-04-25 20:34:00,
2013-04-25 15:39:00,66.5,41.0,28.76,ESE,112,7.2,10.0,39,0.00,,,0.00,Rainwise IP-100,2013-04-25 20:39:00,
2013-04-25 15:44:00,66.7,41.0,28.75,SSE,157,3.3,8.6,39,0.00,,,0.00,Rainwise IP-100,2013-04-25 20:44:00,
2013-04-25 15:49:00,67.4,42.0,28.75,SSE,157,9.1,9.1,39,0.00,,,0.00,Rainwise IP-100,2013-04-25 20:49:00,
2013-04-25 15:54:00,67.4,42.0,28.75,SSE,157,12.6,12.6,39,0.00,,,0.00,Rainwise IP-100,2013-04-25 20:54:00,
2013-04-25 15:59:00,67.3,42.0,28.75,SSE,157,6.3,12.8,39,0.00,,,0.00,Rainwise IP-100,2013-04-25 20:59:00,
2013-04-25 16:04:00,67.1,41.0,28.75,East,90,4.0,10.7,39,0.00,,,0.00,Rainwise IP-100,2013-04-25 21:04:00,
2013-04-25 16:09:00,67.3,42.0,28.74,SSE,157,7.2,11.0,39,0.00,,,0.00,Rainwise IP-100,2013-04-25 21:09:00,
2013-04-25 16:14:00,67.4,42.0,28.74,East,90,7.9,9.8,39,0.00,,,0.00,Rainwise IP-100,2013-04-25 21:14:00,
2013-04-25 16:19:00,67.2,41.0,28.74,SSE,157,7.0,9.1,39,0.00,,,0.00,Rainwise IP-100,2013-04-25 21:19:00,
2013-04-25 16:24:00,67.1,42.0,28.74,ENE,67,1.4,11.4,40,0.00,,,0.00,Rainwise IP-100,2013-04-25 21:24:00,
2013-04-25 16:29:00,67.5,42.0,28.73,SE,135,2.1,10.7,40,0.00,,,0.00,Rainwise IP-100,2013-04-25 21:29:00,
2013-04-25 16:34:00,67.6,42.0,28.73,SE,135,4.4,11.9,40,0.00,,,0.00,Rainwise IP-100,2013-04-25 21:34:00,
2013-04-25 16:39:00,67.6,42.0,28.73,SSE,157,7.5,12.6,40,0.00,,,0.00,Rainwise IP-100,2013-04-25 21:39:00,
2013-04-25 16:44:00,67.8,43.0,28.72,SE,135,9.3,11.9,40,0.00,,,0.00,Rainwise IP-100,2013-04-25 21:44:00,
2013-04-25 16:49:00,68.0,43.0,28.72,South,180,4.2,10.0,40,0.00,,,0.00,Rainwise IP-100,2013-04-25 21:49:00,
2013-04-25 16:54:00,68.1,43.0,28.72,SSE,157,3.7,10.7,40,0.00,,,0.00,Rainwise IP-100,2013-04-25 21:54:00,
2013-04-25 16:59:00,68.1,42.0,28.72,East,90,3.3,11.7,39,0.00,,,0.00,Rainwise IP-100,2013-04-25 21:59:00,
2013-04-25 17:04:00,68.0,42.0,28.72,SE,135,6.1,11.0,39,0.00,,,0.00,Rainwise IP-100,2013-04-25 22:04:00,
2013-04-25 17:09:00,68.0,42.0,28.72,SSE,157,1.2,9.6,39,0.00,,,0.00,Rainwise IP-100,2013-04-25 22:09:00,
2013-04-25 17:14:00,68.1,41.0,28.72,ESE,112,4.4,13.1,38,0.00,,,0.00,Rainwise IP-100,2013-04-25 22:14:00,
2013-04-25 17:19:00,68.0,41.0,28.72,East,90,4.0,11.9,38,0.00,,,0.00,Rainwise IP-100,2013-04-25 22:19:00,
2013-04-25 17:24:00,67.8,41.0,28.72,SSE,157,6.5,13.3,38,0.00,,,0.00,Rainwise IP-100,2013-04-25 22:24:00,
2013-04-25 17:29:00,67.6,39.0,28.72,SE,135,7.9,11.4,36,0.00,,,0.00,Rainwise IP-100,2013-04-25 22:29:00,
2013-04-25 17:34:00,67.4,39.0,28.73,SE,135,4.4,13.1,36,0.00,,,0.00,Rainwise IP-100,2013-04-25 22:34:00,
2013-04-25 17:39:00,67.2,39.0,28.72,ESE,112,3.7,10.0,36,0.00,,,0.00,Rainwise IP-100,2013-04-25 22:39:00,
2013-04-25 17:44:00,67.0,40.0,28.72,SE,135,14.9,14.9,37,0.00,,,0.00,Rainwise IP-100,2013-04-25 22:44:00,
2013-04-25 17:49:00,66.8,39.0,28.72,ESE,112,3.5,14.9,37,0.00,,,0.00,Rainwise IP-100,2013-04-25 22:49:00,
2013-04-25 17:54:00,66.5,39.0,28.73,SE,135,7.9,9.1,37,0.00,,,0.00,Rainwise IP-100,2013-04-25 22:54:00,
2013-04-25 17:59:00,66.5,40.0,28.73,SE,135,4.2,9.1,38,0.00,,,0.00,Rainwise IP-100,2013-04-25 22:59:00,
2013-04-25 18:04:00,66.7,40.0,28.72,ESE,112,3.7,10.0,38,0.00,,,0.00,Rainwise IP-100,2013-04-25 23:04:00,
2013-04-25 18:09:00,66.8,41.0,28.72,ESE,112,3.0,11.9,39,0.00,,,0.00,Rainwise IP-100,2013-04-25 23:09:00,
2013-04-25 18:14:00,66.8,41.0,28.72,East,90,2.6,12.6,39,0.00,,,0.00,Rainwise IP-100,2013-04-25 23:14:00,
2013-04-25 18:19:00,66.8,41.0,28.72,ESE,112,4.0,13.3,39,0.00,,,0.00,Rainwise IP-100,2013-04-25 23:19:00,
2013-04-25 18:24:00,66.5,41.0,28.72,South,180,7.0,13.3,39,0.00,,,0.00,Rainwise IP-100,2013-04-25 23:24:00,
2013-04-25 18:29:00,66.1,40.0,28.73,East,90,6.1,16.3,39,0.00,,,0.00,Rainwise IP-100,2013-04-25 23:29:00,
2013-04-25 18:34:00,65.9,40.0,28.73,SE,135,5.4,12.6,39,0.00,,,0.00,Rainwise IP-100,2013-04-25 23:34:00,
2013-04-25 18:39:00,65.7,40.0,28.72,ESE,112,6.1,12.6,40,0.00,,,0.00,Rainwise IP-100,2013-04-25 23:39:00,
2013-04-25 18:44:00,65.5,40.0,28.72,ESE,112,5.1,14.5,40,0.00,,,0.00,Rainwise IP-100,2013-04-25 23:44:00,
2013-04-25 18:49:00,65.3,40.0,28.72,ESE,112,5.8,13.5,40,0.00,,,0.00,Rainwise IP-100,2013-04-25 23:49:00,
2013-04-25 18:54:00,65.1,40.0,28.73,SE,135,3.3,13.5,40,0.00,,,0.00,Rainwise IP-100,2013-04-25 23:54:00,
2013-04-25 18:59:00,65.0,40.0,28.72,SSE,157,3.0,10.3,41,0.00,,,0.00,Rainwise IP-100,2013-04-25 23:59:00,
2013-04-25 19:04:00,65.0,40.0,28.72,SE,135,4.9,9.6,41,0.00,,,0.00,Rainwise IP-100,2013-04-26 00:04:00,
2013-04-25 19:09:00,64.9,41.0,28.72,ESE,112,3.5,12.4,42,0.00,,,0.00,Rainwise IP-100,2013-04-26 00:09:00,
2013-04-25 19:14:00,64.8,41.0,28.71,SSE,157,4.4,10.0,42,0.00,,,0.00,Rainwise IP-100,2013-04-26 00:14:00,
2013-04-25 19:19:00,64.7,41.0,28.72,SSE,157,5.4,12.8,42,0.00,,,0.00,Rainwise IP-100,2013-04-26 00:19:00,
2013-04-25 19:24:00,64.5,41.0,28.72,South,180,3.5,10.5,43,0.00,,,0.00,Rainwise IP-100,2013-04-26 00:24:00,
2013-04-25 19:29:00,64.5,41.0,28.71,ESE,112,5.1,9.8,43,0.00,,,0.00,Rainwise IP-100,2013-04-26 00:29:00,
2013-04-25 19:34:00,64.4,41.0,28.72,ESE,112,4.4,9.3,43,0.00,,,0.00,Rainwise IP-100,2013-04-26 00:34:00,
2013-04-25 19:39:00,64.4,42.0,28.72,SSE,157,6.3,10.7,44,0.00,,,0.00,Rainwise IP-100,2013-04-26 00:39:00,
2013-04-25 19:44:00,64.4,41.0,28.71,East,90,6.1,10.5,43,0.00,,,0.00,Rainwise IP-100,2013-04-26 00:44:00,
2013-04-25 19:49:00,64.3,41.0,28.71,SE,135,4.7,14.0,43,0.00,,,0.00,Rainwise IP-100,2013-04-26 00:49:00,
2013-04-25 19:54:00,64.2,40.0,28.71,SE,135,6.8,16.3,42,0.00,,,0.00,Rainwise IP-100,2013-04-26 00:54:00,
2013-04-25 19:59:00,64.1,40.0,28.71,SE,135,8.4,14.2,41,0.00,,,0.00,Rainwise IP-100,2013-04-26 00:59:00,
2013-04-25 20:04:00,63.9,40.0,28.71,ESE,112,6.5,15.2,41,0.00,,,0.00,Rainwise IP-100,2013-04-26 01:04:00,
2013-04-25 20:09:00,63.7,40.0,28.72,SE,135,7.5,13.3,42,0.00,,,0.00,Rainwise IP-100,2013-04-26 01:09:00,
2013-04-25 20:14:00,63.5,40.0,28.71,SE,135,4.7,13.3,42,0.00,,,0.00,Rainwise IP-100,2013-04-26 01:14:00,
2013-04-25 20:19:00,63.4,40.0,28.71,SE,135,7.7,13.5,42,0.00,,,0.00,Rainwise IP-100,2013-04-26 01:19:00,
2013-04-25 20:24:00,63.2,40.0,28.71,SE,135,6.8,12.8,43,0.00,,,0.00,Rainwise IP-100,2013-04-26 01:24:00,
2013-04-25 20:29:00,63.1,41.0,28.71,SE,135,6.8,12.1,44,0.00,,,0.00,Rainwise IP-100,2013-04-26 01:29:00,
2013-04-25 20:34:00,62.9,41.0,28.72,SE,135,3.3,9.6,44,0.00,,,0.00,Rainwise IP-100,2013-04-26 01:34:00,
2013-04-25 20:39:00,62.9,41.0,28.72,SE,135,6.5,11.4,44,0.00,,,0.00,Rainwise IP-100,2013-04-26 01:39:00,
2013-04-25 20:44:00,62.9,41.0,28.71,SSE,157,5.8,11.4,45,0.00,,,0.00,Rainwise IP-100,2013-04-26 01:44:00,
2013-04-25 20:49:00,62.8,41.0,28.71,SSE,157,5.1,11.4,45,0.00,,,0.00,Rainwise IP-100,2013-04-26 01:49:00,
2013-04-25 20:54:00,62.7,41.0,28.71,SE,135,5.4,8.6,45,0.00,,,0.00,Rainwise IP-100,2013-04-26 01:54:00,
2013-04-25 20:59:00,62.6,41.0,28.71,SE,135,4.0,7.7,46,0.00,,,0.00,Rainwise IP-100,2013-04-26 01:59:00,
2013-04-25 21:04:00,62.5,41.0,28.71,SSE,157,7.0,11.0,46,0.00,,,0.00,Rainwise IP-100,2013-04-26 02:04:00,
2013-04-25 21:09:00,62.5,41.0,28.71,SE,135,6.3,12.1,46,0.00,,,0.00,Rainwise IP-100,2013-04-26 02:09:00,
2013-04-25 21:14:00,62.4,41.0,28.71,South,180,2.3,12.6,46,0.00,,,0.00,Rainwise IP-100,2013-04-26 02:14:00,
2013-04-25 21:19:00,62.2,41.0,28.71,SSE,157,6.5,11.2,47,0.00,,,0.00,Rainwise IP-100,2013-04-26 02:19:00,
2013-04-25 21:24:00,62.2,41.0,28.71,SSE,157,1.9,11.4,47,0.00,,,0.00,Rainwise IP-100,2013-04-26 02:24:00,
2013-04-25 21:29:00,62.1,41.0,28.71,SSE,157,5.6,11.0,47,0.00,,,0.00,Rainwise IP-100,2013-04-26 02:29:00,
2013-04-25 21:34:00,61.9,42.0,28.71,SSE,157,9.8,11.2,48,0.00,,,0.00,Rainwise IP-100,2013-04-26 02:34:00,
2013-04-25 21:39:00,61.8,42.0,28.71,SE,135,9.1,13.5,48,0.00,,,0.00,Rainwise IP-100,2013-04-26 02:39:00,
2013-04-25 21:44:00,61.7,41.0,28.71,SSE,157,4.2,14.5,48,0.00,,,0.00,Rainwise IP-100,2013-04-26 02:44:00,
2013-04-25 21:49:00,61.7,41.0,28.71,South,180,5.6,9.3,48,0.00,,,0.00,Rainwise IP-100,2013-04-26 02:49:00,
2013-04-25 21:54:00,61.5,41.0,28.71,ESE,112,4.2,9.3,48,0.00,,,0.00,Rainwise IP-100,2013-04-26 02:54:00,
2013-04-25 21:59:00,61.2,41.0,28.71,SSE,157,4.9,8.9,48,0.00,,,0.00,Rainwise IP-100,2013-04-26 02:59:00,
2013-04-25 22:04:00,61.1,41.0,28.71,SSE,157,4.7,11.0,49,0.00,,,0.00,Rainwise IP-100,2013-04-26 03:04:00,
2013-04-25 22:09:00,61.0,41.0,28.71,SSE,157,3.5,9.8,49,0.00,,,0.00,Rainwise IP-100,2013-04-26 03:09:00,
2013-04-25 22:14:00,61.0,41.0,28.71,SSE,157,2.3,10.0,49,0.00,,,0.00,Rainwise IP-100,2013-04-26 03:14:00,
2013-04-25 22:19:00,61.0,41.0,28.71,SSE,157,4.4,9.1,49,0.00,,,0.00,Rainwise IP-100,2013-04-26 03:19:00,
2013-04-25 22:24:00,61.0,42.0,28.71,SE,135,3.7,11.2,50,0.00,,,0.00,Rainwise IP-100,2013-04-26 03:24:00,
2013-04-25 22:29:00,60.9,42.0,28.71,SE,135,4.9,11.4,50,0.00,,,0.00,Rainwise IP-100,2013-04-26 03:29:00,
2013-04-25 22:34:00,60.8,42.0,28.71,SSE,157,3.5,9.3,50,0.00,,,0.00,Rainwise IP-100,2013-04-26 03:34:00,
2013-04-25 22:39:00,60.6,42.0,28.71,SSE,157,4.0,10.7,50,0.00,,,0.00,Rainwise IP-100,2013-04-26 03:39:00,
2013-04-25 22:44:00,60.7,42.0,28.71,SE,135,3.3,10.5,50,0.00,,,0.00,Rainwise IP-100,2013-04-26 03:44:00,
2013-04-25 22:49:00,60.8,42.0,28.71,SE,135,5.6,9.6,50,0.00,,,0.00,Rainwise IP-100,2013-04-26 03:49:00,
2013-04-25 22:54:00,60.9,42.0,28.71,SE,135,5.8,11.4,50,0.00,,,0.00,Rainwise IP-100,2013-04-26 03:54:00,
2013-04-25 22:59:00,61.2,42.0,28.71,SSE,157,6.3,12.8,50,0.00,,,0.00,Rainwise IP-100,2013-04-26 03:59:00,
2013-04-25 23:01:00,61.2,42.0,28.71,SSW,202,9.1,12.8,50,0.00,,,0.00,Rainwise IP-100,2013-04-26 04:01:00,
2013-04-25 23:04:00,61.3,42.0,28.71,SSE,157,5.1,13.1,49,0.00,,,0.00,Rainwise IP-100,2013-04-26 04:04:00,
2013-04-25 23:09:00,61.4,42.0,28.71,SE,135,5.1,10.5,49,0.00,,,0.00,Rainwise IP-100,2013-04-26 04:09:00,
2013-04-25 23:14:00,61.5,42.0,28.70,East,90,6.3,13.5,49,0.00,,,0.00,Rainwise IP-100,2013-04-26 04:14:00,
2013-04-25 23:19:00,61.6,41.0,28.69,ESE,112,5.6,11.7,48,0.00,,,0.00,Rainwise IP-100,2013-04-26 04:19:00,
2013-04-25 23:24:00,61.7,41.0,28.69,SSW,202,5.8,12.8,48,0.00,,,0.00,Rainwise IP-100,2013-04-26 04:24:00,
2013-04-25 23:29:00,61.6,41.0,28.69,SSE,157,3.3,10.5,48,0.00,,,0.00,Rainwise IP-100,2013-04-26 04:29:00,
2013-04-25 23:34:00,61.5,41.0,28.68,ESE,112,4.4,13.1,48,0.00,,,0.00,Rainwise IP-100,2013-04-26 04:34:00,
2013-04-25 23:39:00,61.5,41.0,28.68,SE,135,7.9,13.5,48,0.00,,,0.00,Rainwise IP-100,2013-04-26 04:39:00,
2013-04-25 23:44:00,61.5,41.0,28.68,SE,135,5.8,14.7,48,0.00,,,0.00,Rainwise IP-100,2013-04-26 04:44:00,
2013-04-25 23:49:00,61.5,41.0,28.68,ESE,112,3.5,11.9,48,0.00,,,0.00,Rainwise IP-100,2013-04-26 04:49:00,
2013-04-25 23:54:00,61.5,41.0,28.68,South,180,8.6,14.0,48,0.00,,,0.00,Rainwise IP-100,2013-04-26 04:54:00,
2013-04-25 23:59:00,61.5,41.0,28.68,SSE,157,2.3,10.5,48,0.00,,,0.00,Rainwise IP-100,2013-04-26 04:59:00,